Bowling Green, KY

5:53 AM CDT on October 20, 2017 (GMT -0500)
Bowling Green-Warren County Regional

Weather History for KBWG - January, 2013

Change the Weather History Date:

Monday, January 28, 2013

  Actual Average Record
Temperature  
Mean Temperature 55 °F 36 °F  
Max Temperature 60 °F 46 °F 70 °F (1914)
Min Temperature 49 °F 27 °F -18 °F (1963)
Degree Days  
Heating Degree Days 10 29  
Month to date heating degree days 732 825  
Since 1 July heating degree days 2157 2409  
Cooling Degree Days 0 0  
Month to date cooling degree days 0 0  
Year to date cooling degree days 0 0  
Growing Degree Days 5 (Base 50)    
Moisture  
Dew Point 46 °F    
Average Humidity 73    
Maximum Humidity 86    
Minimum Humidity 59    
Precipitation  
Precipitation 0.09 in 0.12 in 1.80 in (1902)
Month to date precipitation 4.12 3.22  
Year to date precipitation 4.12 3.22  
Snow  
Snow 0.00 in 0.10 in 2.00 in (1895)
Month to date snowfall 0.1 2.9  
Since 1 July snowfall 0.1 4.1  
Snow Depth 0.00 in    
Sea Level Pressure  
Sea Level Pressure 30.15 in    
Wind  
Wind Speed 12 mph (SSW)    
Max Wind Speed 22 mph    
Max Gust Speed 28 mph    
T = Trace of Precipitation, MM = Missing Value Source: NWS Daily Summary

Daily Weather History Graph

Daily Weather History Graph

Search for Another Location

Airport or City:

Trip Planner

Search our weather history database for the weather conditions in past years. The results will help you decide how hot, cold, wet, or windy it might be!

Date:

Astronomy

Jan. 28, 2013 Rise Set
Actual Time 6:50 AM CST 5:06 PM CST
Civil Twilight 6:23 AM CST 5:34 PM CST
Nautical Twilight 5:52 AM CST 6:05 PM CST
Astronomical Twilight 5:21 AM CST 6:36 PM CST
Moon 6:56 PM CST (1/28) 7:19 AM CST (1/28)
Length of Visible Light 11h 10m
Length of Day
10h 15m
Full, 98% of the Moon is Illuminated
Jan 28
Full
Feb 3
Last Quarter
Feb 10
New
Feb 17
First Quarter
Feb 25
Full

Hourly Weather History & Observations

Time (CST) Temp. Dew Point Humidity Pressure Visibility Wind Dir Wind Speed Gust Speed Precip Events Conditions
12:53 AM 50.0 °F 39.0 °F 66% 30.19 in - South 16.1 mph 23.0 mph N/A   Clear
1:53 AM 50.0 °F 37.9 °F 63% 30.20 in - SSW 12.7 mph 19.6 mph N/A   Clear
2:53 AM 50.0 °F 37.9 °F 63% 30.20 in - SSW 13.8 mph 23.0 mph N/A   Clear
3:53 AM 50.0 °F 37.9 °F 63% 30.20 in - SSW 13.8 mph 21.9 mph N/A   Overcast
4:53 AM 51.1 °F 37.9 °F 61% 30.20 in - South 13.8 mph - N/A   Overcast
5:53 AM 51.1 °F 37.9 °F 61% 30.20 in - South 13.8 mph 23.0 mph N/A   Overcast
6:53 AM 50.0 °F 39.0 °F 66% 30.20 in - South 11.5 mph - N/A   Overcast
7:53 AM 51.1 °F 39.9 °F 66% 30.21 in - South 13.8 mph - N/A   Overcast
8:53 AM 53.1 °F 42.1 °F 66% 30.19 in - South 13.8 mph - N/A   Overcast
9:53 AM 54.0 °F 45.0 °F 72% 30.19 in - SSW 13.8 mph 23.0 mph 0.01 in   Overcast
10:53 AM 54.0 °F 48.0 °F 80% 30.19 in - SSW 15.0 mph - 0.02 in Rain Light Rain
11:53 AM 55.9 °F 48.9 °F 77% 30.16 in - SSW 16.1 mph - 0.01 in   Mostly Cloudy
12:53 PM 55.9 °F 51.1 °F 84% 30.13 in - SSW 11.5 mph - 0.04 in   Overcast
1:29 PM 57.2 °F 51.8 °F 82% 30.11 in - South 12.7 mph - 0.01 in   Overcast
1:53 PM 57.9 °F 51.1 °F 78% 30.11 in - South 13.8 mph - 0.01 in   Overcast
2:53 PM 59.0 °F 51.1 °F 75% 30.10 in - SSW 16.1 mph - N/A   Overcast
3:27 PM 59.0 °F 51.8 °F 77% 30.11 in - SSW 16.1 mph 20.7 mph N/A   Overcast
3:40 PM 59.0 °F 51.8 °F 77% 30.11 in - SSW 13.8 mph - N/A   Overcast
3:53 PM 60.1 °F 51.1 °F 72% 30.11 in - SSW 12.7 mph - N/A   Overcast
4:53 PM 59.0 °F 51.1 °F 75% 30.12 in - SSW 11.5 mph - N/A   Scattered Clouds
5:53 PM 57.9 °F 51.1 °F 78% 30.13 in - South 5.8 mph - N/A   Overcast
6:53 PM 57.9 °F 51.1 °F 78% 30.14 in - South 5.8 mph - N/A   Overcast
7:53 PM 57.0 °F 50.0 °F 77% 30.13 in - South 6.9 mph - N/A   Scattered Clouds
8:53 PM 55.9 °F 50.0 °F 80% 30.12 in - South 8.1 mph - N/A   Clear
9:53 PM 57.0 °F 50.0 °F 77% 30.12 in - South 8.1 mph - N/A   Clear
10:53 PM 57.0 °F 50.0 °F 77% 30.12 in - South 11.5 mph - N/A   Clear
11:53 PM 55.9 °F 50.0 °F 80% 30.12 in - South 8.1 mph - N/A   Clear